Showing default

CHINASAT 2D, 43920

Orbit data source: Space-Track

CHINASAT 2D, 43920 is a payload satellite owned by PLA SSF (CN) in GEO that was launched on Thu, 10 Jan 2019 UTC via a CHANG ZHENG 3B launch vehicle from the Xichang Space Center, China (XSC). Payloads include a variety of satellites, spacecraft, and rockets equipped with specific instruments for various scientific and technological missions. These include communications satellites like Starlink; space stations such as the ISS; scientific satellites like the Hubble; Earth observation satellites from companies like Planet Labs, Umbra, and HawkEye 360; GPS; miniature CubeSats for education and research; and military/defense satellites.

Not visible in the next 10 days
CHINASAT 2D details
Identifier
43920, 2019-001A
Orbit
GEO
Last TLE update21 hours ago
Origin
Flag of CNPLA SSF (CN / PRC)
ManufacturerCAST?
MissionOperational Defense Communications
Bus & MotorDFH-4?, DFH-4 LAE
Mass~5,000 kg wet, ~2,500 kg dry
Launch date (UTC)
2019-01-10 (6 years ago)
Launch vehicle
CHANG ZHENG 3B
Launch site
Xichang Space Center, China (XSC)
Object type
Payload
Rocket body
Debris
Shape & HBRBox + 2 Pan, 30 m
Radar Cross Section34.063 m², Large (>1 m²)

Expand to show TLE details & history

TLE from 21 hours ago
0 CHINASAT 2D
1 43920U 19001A   24360.58465887 -.00000310  00000-0  00000-0 0  9990
2 43920   0.0426 228.1095 0001743 358.5026 208.4676  1.00271843 48677
Epoch: 2024-12-25T14:01Z
Definitive object data (Epoch: 2024-12-25T14:01:54.526Z)
Latitude0.00942°
Longitude130.00998°
Altitude35,792.548 km
Speed3.074 km/s
True Right ascension05h 00m 15s
True Declination0° 00' 34"
Sunlit
Object was in daylight at TLE epoch
Visualization TLE readout
Latitude0.02512°
Longitude88.87115°
Altitude35,793.353 km
Speed3.074 km/s
Apparent Right ascension01h 55m 16s
Apparent Declination-5° 07' 43"
Sunlit
Object is in daylight
Visualization observer readout
Local Sidereal Time10:35:08
Azimuth294.131° NW
Elevation-33.234°
Doppler factor1
Orbital elements
Apogee altitude35,794.999 km
Perigee altitude35,780.3 km
Semi-major axis42,165.786 km
Eccentricity0.0001743
Inclination0.0426°
RAAN228.1095°
Arg. of periapsis358.5026°
True anomaly208.45808°
Mean anomaly208.4676°
Eccentric anomaly208.46284°
Mean motion0.25067 °/min
BSTARUnknown
Orbital period1436.15 mins
Loading historical data...
43920 neighbors
Authenticating...
Loading maneuver chart data...
Loading historical data...
Loading historical data...
Loading historical data...
Loading historical data...
Loading historical data...
Loading historical data...
Loading historical data...
Other satellites on launch #1 in the year 2019 (2019-01-10 UTC)

CHINASAT 2D Visibility forecast

Observer location: undefined°, undefined

CHINASAT 2D is not visible in the next 10 days
Span
Click to sort rows by Start time (UTC) header in descending order
Start Az.
Max El. time (UTC)
Max El. Az.
Max El.
End time (UTC)
End Az.
|